Kuchera_Ratio
11.4 12.1 12.3 12.5 12.8 13.2 13.5 13.9 14.4 15.1 15.6 16.2 16.8 17.2 17.6 17.8 17.9 18.2 18.5 18.7 19.0 19.2 19.4 19.5 19.6 19.7 20.3 21.5 22.0 21.8 21.5 21.1 20.7 20.5 20.5 21.0 21.6 22.0 22.3 22.6 23.1 23.4 23.6 23.9 24.0 24.2 24.3 24.4 24.6 24.8 25.1 25.3 25.5 26.0 26.3 26.7 27.0 27.1 27.7 27.7 28.0 28.6 28.5 28.6 28.2 27.6 23.6 24.5 25.8 25.5 25.8 25.5 24.9 25.4 25.1 24.1 24.1 24.5 24.1 24.5 25.0 25.2 25.4 25.3 24.8
11.8 12.2 12.4 12.6 13.0 13.3 13.7 14.1 14.8 15.5 16.0 16.5 17.1 17.4 17.8 18.0 18.2 18.5 18.8 18.9 19.0 19.4 19.6 19.7 19.7 19.8 20.4 21.3 21.8 21.8 21.6 21.4 21.0 20.5 20.3 20.8 21.4 21.8 22.1 22.5 23.0 23.4 23.6 23.9 24.1 24.2 24.3 24.3 24.5 24.7 25.1 25.5 25.7 26.2 26.3 26.7 27.2 27.1 27.5 28.0 27.7 28.5 28.7 28.7 28.6 28.2 26.0 24.1 25.0 25.5 25.8 26.0 25.5 25.3 25.3 24.6 24.4 24.8 24.5 24.0 24.2 24.8 25.4 25.4 25.2
12.1 12.3 12.5 12.8 13.2 13.5 13.9 14.5 15.2 15.8 16.2 16.8 17.4 17.7 17.9 18.1 18.4 18.7 19.0 19.0 19.2 19.5 19.8 19.9 19.9 20.0 20.4 21.0 21.3 21.5 21.6 21.4 21.2 20.8 20.3 20.5 21.0 21.6 22.1 22.5 22.9 23.2 23.5 23.7 23.9 24.1 24.2 24.2 24.3 24.5 24.9 25.4 25.7 26.1 26.5 26.6 27.0 27.3 27.3 27.8 28.0 28.0 28.8 28.9 28.9 28.6 28.3 25.7 25.3 26.0 26.0 25.9 25.9 25.9 25.9 25.2 24.7 25.0 24.8 24.3 24.1 24.4 24.9 24.9 25.6
12.3 12.4 12.6 12.9 13.3 13.7 14.2 14.9 15.5 16.0 16.5 17.1 17.6 17.8 18.0 18.3 18.6 18.9 19.0 19.0 19.3 19.7 19.9 20.0 20.0 20.2 20.5 20.9 21.0 21.2 21.4 21.4 21.4 21.2 20.8 20.6 21.0 21.7 22.4 22.9 23.2 23.5 23.6 23.8 23.8 23.8 23.9 24.0 24.3 24.4 24.6 25.3 25.7 26.0 26.6 26.9 27.1 27.5 27.4 27.5 28.0 27.9 28.0 28.8 29.0 29.0 28.7 27.5 26.0 26.5 26.8 26.4 26.0 26.4 26.8 26.1 25.2 25.0 24.7 24.3 24.3 24.5 24.6 25.4 26.1
12.4 12.5 12.7 13.1 13.4 13.8 14.5 15.2 15.9 16.2 16.7 17.4 17.8 17.9 18.1 18.4 18.7 19.0 19.0 19.0 19.4 19.8 20.0 20.0 20.1 20.5 20.8 21.0 21.0 21.0 21.0 21.1 21.5 21.8 21.5 21.0 21.2 22.0 22.8 23.3 23.6 23.9 24.0 24.2 24.1 24.0 24.0 23.9 24.1 24.5 24.6 24.9 25.6 25.9 26.3 26.8 27.1 27.6 27.8 27.7 28.0 28.0 27.9 28.3 28.8 29.0 29.0 28.7 27.0 26.5 27.0 26.9 26.3 26.4 27.2 27.3 26.2 25.2 24.5 24.0 24.3 25.0 25.0 24.9 26.0
12.5 12.6 12.9 13.3 13.6 14.1 14.8 15.5 16.1 16.4 17.0 17.7 17.9 18.0 18.3 18.6 18.8 18.9 18.9 19.1 19.5 19.9 20.0 20.1 20.3 20.7 21.0 21.0 21.0 21.0 20.9 20.9 21.4 22.1 22.0 21.5 21.5 22.2 23.2 23.6 23.8 24.0 24.2 24.4 24.5 24.4 24.3 24.2 24.1 24.4 24.8 24.9 25.4 25.8 26.0 26.4 26.8 27.3 27.6 27.7 27.9 28.2 28.0 28.0 28.5 28.7 28.9 28.9 28.0 27.1 26.8 27.0 26.9 26.4 27.0 27.8 27.3 26.4 25.5 24.1 23.5 24.7 25.5 25.2 25.4
12.7 12.7 13.0 13.5 13.9 14.4 15.1 15.8 16.2 16.6 17.3 18.0 18.0 18.2 18.4 18.7 18.8 18.8 18.9 19.0 19.5 19.9 20.0 20.2 20.5 20.8 21.0 21.1 21.2 21.1 21.0 21.0 21.2 22.0 22.3 21.9 21.5 22.0 22.8 23.3 23.6 24.0 24.2 24.3 24.6 24.6 24.5 24.5 24.5 24.4 24.8 25.0 25.3 25.7 26.0 26.1 26.3 26.8 27.5 27.7 27.8 28.0 28.0 27.9 28.4 28.6 28.6 28.5 28.2 27.8 27.3 27.2 27.4 27.1 27.2 27.7 27.4 27.0 27.2 26.5 24.7 24.3 25.0 25.3 25.6
12.8 12.8 13.2 13.7 14.1 14.7 15.4 16.0 16.4 16.9 17.5 18.1 18.1 18.3 18.5 18.7 18.7 18.7 18.9 19.0 19.4 19.9 20.0 20.2 20.5 20.7 20.8 21.0 21.1 21.0 21.0 21.2 21.3 21.7 22.2 22.0 21.7 21.9 22.2 22.4 22.7 23.4 24.1 24.3 24.5 24.7 24.6 24.6 24.6 24.5 24.7 25.0 25.3 25.7 26.2 26.4 26.4 26.5 27.0 27.6 27.9 28.0 28.1 28.0 28.2 28.4 28.5 28.5 28.1 28.1 27.8 27.3 27.4 27.6 27.5 27.5 27.2 26.7 27.6 28.8 28.2 26.7 25.8 25.2 25.5
12.8 13.0 13.4 13.8 14.3 15.0 15.6 16.1 16.6 17.1 17.8 18.2 18.3 18.5 18.6 18.8 18.7 18.7 18.9 19.0 19.3 19.7 20.0 20.1 20.3 20.5 20.7 20.8 20.8 20.8 20.8 21.0 21.1 21.4 22.0 22.0 21.8 21.9 22.1 22.2 22.2 22.4 23.1 23.7 24.0 24.4 24.5 24.5 24.5 24.5 24.5 24.7 25.1 25.5 26.1 26.5 26.7 26.8 27.0 27.5 28.0 28.1 28.2 28.2 28.3 28.3 28.3 28.4 28.1 28.2 28.2 27.7 27.6 27.9 27.9 28.0 28.3 28.0 28.0 28.2 29.5 28.8 27.6 25.7 24.8
12.9 13.1 13.6 14.0 14.5 15.2 15.8 16.3 16.8 17.3 17.9 18.3 18.3 18.5 18.7 18.8 18.7 18.7 18.8 18.9 19.3 19.7 19.8 20.0 20.1 20.2 20.6 20.7 20.8 20.8 20.8 21.1 21.3 21.4 21.8 21.9 21.8 22.0 22.2 22.3 22.3 22.2 22.4 22.9 23.2 23.5 24.0 24.2 24.4 24.3 24.2 24.3 24.6 25.0 25.5 26.0 26.6 26.9 27.1 27.6 28.1 28.4 28.3 28.3 28.4 28.5 28.4 28.4 28.3 28.4 28.1 28.3 28.1 28.5 28.6 28.4 28.9 29.0 28.9 29.0 29.4 29.0 28.4 26.8 24.8
13.0 13.3 13.8 14.2 14.8 15.5 16.0 16.5 17.0 17.5 18.1 18.4 18.4 18.6 18.8 18.8 18.6 18.6 18.7 18.9 19.3 19.6 19.7 19.8 20.0 20.2 20.7 20.9 20.8 21.0 21.2 21.6 22.1 22.1 21.9 21.7 21.7 22.0 22.4 22.3 22.3 22.4 22.5 22.7 22.7 22.8 23.1 23.5 24.0 24.1 24.0 24.0 24.0 24.3 24.8 25.3 25.9 26.3 26.6 27.2 27.8 28.4 28.8 28.6 28.5 28.6 28.7 28.6 28.3 28.4 28.5 28.3 28.4 28.7 28.7 28.7 28.9 29.0 28.9 29.1 29.5 29.4 29.0 28.8 27.2
13.1 13.5 13.9 14.4 15.1 15.7 16.2 16.7 17.2 17.7 18.4 18.5 18.5 18.7 18.9 18.9 18.6 18.5 18.7 19.0 19.4 19.6 19.7 19.9 20.1 20.5 20.9 21.0 20.9 21.1 21.5 22.0 22.5 22.7 22.5 21.0 22.2 22.4 22.6 22.7 22.7 22.8 23.0 23.1 23.1 23.0 22.8 23.0 23.4 23.8 24.0 24.0 23.9 24.0 24.2 24.5 25.0 25.5 25.9 26.4 27.0 27.6 27.9 28.6 28.6 28.8 29.0 28.9 28.5 28.2 28.9 28.7 28.7 28.6 28.9 28.8 28.8 28.7 28.1 29.4 29.6 29.8 29.6 29.6 28.9
13.2 13.7 14.1 14.6 15.3 15.9 16.4 16.9 17.4 17.8 18.6 18.6 18.6 18.9 19.0 18.9 18.7 18.6 18.7 19.1 19.4 19.7 19.9 20.0 20.4 20.8 21.1 21.1 21.1 21.3 21.9 22.3 22.6 22.8 22.9 22.1 20.7 23.0 23.0 23.1 23.4 23.7 23.8 23.8 23.7 23.7 23.4 23.1 23.1 23.5 24.0 24.2 24.2 24.2 24.1 24.0 24.3 24.7 25.1 25.6 26.3 27.0 27.4 27.6 27.9 28.5 28.7 28.8 28.6 28.2 28.7 29.4 29.1 28.5 29.3 28.9 27.8 28.5 29.0 29.2 29.5 29.8 29.7 29.4 29.0
13.4 13.9 14.3 14.8 15.5 16.0 16.5 17.1 17.5 18.0 18.8 18.7 18.7 19.1 19.1 19.0 18.8 18.7 18.8 19.2 19.5 19.8 20.0 20.1 20.6 21.1 21.2 21.2 21.3 21.6 22.2 22.5 22.6 22.7 22.9 22.5 21.4 23.3 23.5 23.7 24.0 24.4 24.5 24.4 24.2 24.1 24.0 23.6 23.4 23.4 23.9 24.5 24.7 24.6 24.3 24.1 24.1 24.2 24.5 24.9 25.5 26.3 27.0 27.1 27.3 27.6 27.9 28.3 28.5 28.3 28.5 29.1 29.1 28.9 28.5 26.9 27.4 29.2 29.4 29.4 29.5 29.6 29.5 29.1 28.7
13.6 14.0 14.5 15.0 15.7 16.2 16.7 17.3 17.7 18.2 18.9 18.8 18.9 19.2 19.2 19.1 19.0 18.9 19.0 19.3 19.6 19.9 20.0 20.3 20.7 21.2 21.3 21.2 21.4 21.8 22.2 22.5 22.6 22.7 22.8 23.0 22.1 23.2 23.5 24.0 24.4 24.6 24.7 24.5 24.5 24.4 24.3 24.1 23.9 23.7 24.0 24.5 24.9 25.1 24.9 24.5 24.5 24.5 24.5 24.7 25.0 25.6 26.3 26.8 27.0 27.2 27.4 27.8 28.2 28.4 28.5 28.7 28.4 27.0 25.6 25.4 26.8 28.6 30.1 30.1 30.0 29.8 29.4 28.6 28.2
13.8 14.3 14.7 15.3 15.9 16.4 16.9 17.5 17.9 18.4 18.8 18.9 19.1 19.3 19.4 19.4 19.2 19.2 19.3 19.4 19.8 20.1 20.2 20.5 20.9 21.1 21.3 21.2 21.3 21.8 22.0 22.1 22.3 22.5 22.6 22.8 22.9 23.0 23.2 23.5 23.9 24.2 24.4 24.4 24.5 24.6 24.6 24.5 24.2 24.0 24.1 24.5 24.9 25.3 25.4 25.1 25.1 25.1 25.0 24.8 24.9 25.2 25.7 26.1 26.5 26.7 27.0 27.4 27.8 28.2 27.4 25.9 23.4 24.6 24.8 25.4 27.6 28.9 29.4 29.8 30.0 29.9 29.7 28.7 28.0
14.0 14.5 14.9 15.5 16.1 16.6 17.1 17.6 18.0 18.5 18.8 19.0 19.3 19.5 19.7 19.6 19.5 19.5 19.5 19.5 20.0 20.3 20.2 20.5 21.0 21.1 21.1 21.0 21.1 21.6 21.8 21.8 21.9 22.1 22.3 22.5 22.5 22.7 22.7 22.8 23.0 23.1 23.5 24.0 24.3 24.5 24.6 24.7 24.6 24.3 24.2 24.5 24.8 25.4 25.8 25.7 25.6 25.8 25.6 25.3 25.1 25.2 25.5 25.7 25.8 26.0 26.1 25.9 25.7 23.4 23.2 23.3 23.9 23.6 23.3 25.6 27.6 28.4 29.9 29.8 29.9 29.6 29.6 29.5 29.2
14.2 14.7 15.2 15.8 16.3 16.7 17.3 17.8 18.2 18.7 18.9 19.2 19.6 19.8 19.9 20.0 19.9 19.7 19.6 19.7 20.1 20.2 20.2 20.7 21.0 21.0 20.8 20.7 21.0 21.3 21.4 21.5 21.7 21.9 22.1 22.2 22.3 22.4 22.2 22.1 22.2 22.3 22.5 23.0 23.4 23.8 24.1 24.4 24.7 24.6 24.4 24.5 24.8 25.3 26.0 26.2 26.0 26.1 26.1 25.9 25.6 25.5 25.6 25.6 25.6 25.6 25.5 25.7 26.0 26.4 26.8 27.0 27.1 27.3 27.7 27.7 27.8 28.3 30.0 30.2 30.0 29.7 29.6 29.7 29.7
14.5 15.0 15.3 15.8 16.3 16.8 17.4 18.0 18.4 18.9 19.3 19.5 20.0 20.2 20.2 20.3 20.2 19.9 19.7 19.9 20.1 20.2 20.5 20.8 20.9 20.8 20.7 20.7 20.9 21.0 21.0 21.2 21.3 21.6 22.1 22.2 22.2 22.3 22.1 21.8 21.7 21.9 22.1 22.3 22.4 23.0 23.5 23.8 24.3 24.6 24.5 24.6 24.8 25.1 25.9 26.2 26.1 26.2 26.5 26.5 26.2 26.0 25.9 25.9 25.9 25.9 25.7 25.6 25.5 25.6 25.9 26.2 26.3 26.6 27.0 27.3 27.8 28.5 29.3 30.2 30.4 30.0 29.7 29.8 29.9
14.6 15.0 15.3 15.9 16.5 17.0 17.6 18.1 18.5 19.0 19.6 20.0 20.3 20.5 20.6 20.5 20.3 20.0 19.9 20.1 20.2 20.3 20.5 20.9 20.9 20.7 20.7 20.6 20.6 20.6 20.9 21.2 21.4 21.6 22.0 22.3 22.3 22.4 22.4 22.3 21.9 21.7 22.0 22.2 22.2 22.5 22.9 23.2 23.8 24.2 24.5 24.8 25.0 25.1 25.5 25.9 26.1 26.2 26.6 26.8 26.6 26.3 26.2 26.0 26.1 26.4 26.3 26.1 25.9 25.7 25.7 25.9 26.0 26.2 26.5 26.6 27.0 27.4 28.1 29.3 30.1 30.4 30.0 29.8 30.0
14.7 15.1 15.5 16.1 16.7 17.2 17.8 18.3 18.6 19.0 19.6 20.1 20.4 20.8 20.9 20.7 20.5 20.3 20.1 20.1 20.3 20.3 20.4 20.7 20.9 20.7 20.4 20.4 20.4 20.5 20.6 21.1 21.6 22.0 22.2 22.5 22.6 22.6 22.8 23.0 22.8 22.1 22.0 22.4 22.5 22.7 23.0 23.2 23.5 24.0 24.4 24.6 24.9 25.2 25.4 25.6 26.0 26.3 26.5 26.6 26.6 26.5 26.4 26.2 26.1 26.3 26.3 26.2 26.1 25.9 25.9 25.9 25.8 26.0 26.2 26.2 26.5 26.7 27.1 28.1 29.1 30.0 30.3 30.0 29.9
15.0 15.3 15.7 16.3 16.8 17.4 18.0 18.4 18.8 19.2 19.7 20.2 20.5 20.8 21.0 20.9 20.6 20.4 20.2 20.2 20.1 20.2 20.4 20.7 20.7 20.5 20.3 20.2 20.3 20.5 20.7 21.0 21.5 22.1 22.5 22.8 23.0 23.1 23.3 23.7 23.7 23.2 22.8 22.8 23.0 23.1 23.4 23.6 23.8 24.0 24.3 24.4 24.6 25.0 25.3 25.5 25.8 26.0 26.2 26.4 26.3 26.3 26.4 26.3 26.2 26.1 26.0 26.0 26.0 26.0 26.0 26.0 25.9 25.9 26.0 26.0 26.2 26.4 26.6 27.2 28.1 29.0 29.9 30.4 30.2
15.0 15.4 15.9 16.5 17.0 17.6 18.1 18.6 19.0 19.4 19.8 20.3 20.6 20.8 21.1 21.1 20.8 20.3 20.2 20.1 20.0 20.1 20.5 20.6 20.5 20.3 20.1 20.0 20.0 20.2 20.6 21.0 21.6 22.1 22.6 23.0 23.2 23.5 24.0 24.4 24.5 24.2 23.7 23.4 23.4 23.3 23.5 23.8 23.9 24.0 24.2 24.3 24.4 24.7 25.1 25.5 25.7 25.8 26.0 26.0 26.0 26.1 26.2 26.1 26.2 26.1 25.9 25.8 25.9 25.9 26.0 26.2 26.2 26.1 26.1 26.0 26.0 26.2 26.5 26.8 27.2 27.9 28.4 29.0 30.1
15.2 15.5 16.1 16.7 17.2 17.7 18.3 18.8 19.1 19.4 19.8 20.2 20.6 20.9 21.1 21.0 20.7 20.3 20.1 20.0 20.0 20.1 20.4 20.3 20.2 20.0 19.8 19.9 20.0 20.2 20.5 21.1 21.8 22.1 22.5 23.0 23.3 23.7 24.3 24.7 24.7 24.5 24.0 23.6 23.4 23.3 23.4 23.5 23.6 23.8 24.0 24.1 24.1 24.4 24.9 25.3 25.5 25.5 25.7 25.7 25.8 26.0 26.0 26.0 26.0 26.0 25.8 25.8 25.7 25.7 26.0 26.3 26.5 26.5 26.4 26.4 26.3 26.2 26.3 26.5 26.7 27.1 27.4 27.7 28.6
15.4 15.8 16.4 17.0 17.4 17.9 18.5 18.9 19.2 19.5 19.9 20.3 20.7 21.0 21.1 21.0 20.6 20.4 20.2 20.0 20.0 20.1 20.2 20.1 19.9 19.7 19.5 19.7 20.3 20.9 21.3 21.7 22.1 22.5 22.8 23.0 23.4 23.8 24.2 24.5 24.4 24.1 23.7 23.3 22.9 22.9 23.1 23.2 23.2 23.4 23.5 23.7 23.9 24.2 24.5 24.8 25.0 25.1 25.4 25.5 25.6 25.9 26.0 26.0 26.0 25.9 25.8 25.8 25.7 25.7 26.0 26.3 26.5 26.7 26.6 26.5 26.5 26.3 26.1 26.0 26.2 26.5 26.5 26.6 27.4
15.6 16.0 16.6 17.2 17.7 18.1 18.6 19.0 19.3 19.6 20.0 20.4 20.7 21.0 21.2 21.2 20.8 20.5 20.2 20.1 20.0 20.0 20.0 19.9 19.7 19.5 19.6 19.9 20.5 21.3 22.0 22.4 22.6 22.8 23.0 23.2 23.4 23.5 23.6 23.7 23.7 23.4 22.9 22.4 22.1 22.2 22.5 22.7 22.8 23.0 23.2 23.4 23.8 24.0 24.0 24.2 24.4 24.6 24.9 25.2 25.5 25.7 25.9 26.0 26.0 25.9 25.9 25.9 25.9 25.8 26.0 26.2 26.4 26.5 26.5 26.4 26.3 26.4 26.4 26.1 26.0 26.2 26.2 26.0 26.3
15.7 16.2 16.8 17.3 17.8 18.3 18.8 19.2 19.5 19.7 20.1 20.5 20.8 21.0 21.1 21.0 20.7 20.5 20.2 20.1 20.1 20.1 20.0 19.9 19.8 19.8 20.0 20.3 20.6 21.2 22.0 22.7 22.8 22.8 23.0 23.0 22.9 22.8 22.9 22.9 22.8 22.5 22.0 21.5 21.5 21.9 22.2 22.4 22.7 23.0 23.1 23.2 23.4 23.6 23.7 23.7 23.8 24.0 24.3 24.6 25.0 25.4 25.7 25.9 26.0 26.0 26.0 26.0 26.1 26.0 26.0 26.0 26.1 26.0 26.1 26.2 26.3 26.5 26.8 26.7 26.4 26.3 26.3 26.2 26.2
15.8 16.4 17.0 17.6 18.2 18.6 19.0 19.4 19.7 19.9 20.3 20.6 20.9 21.0 21.0 20.8 20.6 20.5 20.5 20.2 20.1 20.2 20.2 20.1 20.1 20.0 20.2 20.5 20.7 21.0 21.9 22.8 22.9 22.7 22.7 22.7 22.2 22.0 22.3 22.5 22.4 22.1 21.9 21.6 21.7 22.0 22.2 22.3 22.5 22.9 23.0 22.9 22.9 23.0 23.2 23.3 23.5 23.7 23.9 24.2 24.5 24.8 25.2 25.5 25.6 25.8 26.0 26.1 26.1 26.1 26.0 25.9 25.9 25.9 25.9 26.2 26.5 26.7 27.0 27.0 26.9 26.7 26.7 26.6 26.5
16.0 16.5 17.1 17.7 18.3 18.7 19.1 19.5 19.8 20.0 20.4 20.7 20.9 21.2 21.4 21.3 21.0 20.8 20.6 20.3 20.2 20.3 20.4 20.5 20.4 20.0 20.2 20.8 20.8 20.5 21.3 22.5 22.8 22.6 22.6 22.8 22.6 22.5 22.6 22.9 22.9 22.8 22.7 22.5 22.4 22.3 22.2 22.2 22.4 22.8 22.9 22.9 23.0 23.1 23.2 23.2 23.2 23.4 23.6 23.9 24.2 24.4 24.8 25.2 25.3 25.5 25.9 26.1 26.3 26.4 26.3 26.2 26.0 26.0 26.0 26.0 26.3 26.8 27.1 27.3 27.2 27.0 26.9 26.9 27.0
16.1 16.6 17.2 17.9 18.3 18.6 19.1 19.6 19.9 20.1 20.4 20.7 21.0 21.2 21.5 21.2 20.9 20.7 20.5 20.2 20.2 20.5 20.7 20.8 20.5 20.0 20.2 20.9 20.9 20.5 20.8 21.6 22.0 22.2 22.5 22.8 23.0 23.0 23.0 23.5 23.8 23.8 23.6 23.2 22.8 22.7 22.6 22.4 22.5 23.0 23.2 23.3 23.5 23.6 23.6 23.6 23.5 23.5 23.5 23.7 24.1 24.5 24.9 25.3 25.6 25.8 26.0 26.3 26.5 26.5 26.6 26.6 26.5 26.5 26.5 26.3 26.3 26.7 27.1 27.4 27.5 27.4 27.3 27.3 27.2
16.3 16.8 17.5 18.2 18.5 18.8 19.3 19.8 20.1 20.3 20.6 20.8 21.1 21.3 21.5 21.1 20.8 20.6 20.4 20.1 20.2 20.6 20.8 20.7 20.5 20.2 20.3 20.8 21.0 21.1 21.3 21.4 21.5 22.0 22.4 22.5 22.5 22.6 23.0 23.7 24.3 24.4 24.1 23.5 22.9 23.0 23.1 22.9 22.8 23.2 23.5 23.6 23.8 23.9 24.0 24.0 24.0 23.9 23.7 23.6 24.0 24.6 25.1 25.4 25.8 26.1 26.2 26.4 26.6 26.6 26.7 26.9 26.9 27.0 27.2 27.1 26.9 26.8 27.1 27.4 27.4 27.4 27.6 27.9 28.0
16.5 17.2 17.9 18.5 18.9 19.2 19.5 19.9 20.3 20.5 20.7 20.9 21.2 21.4 21.3 21.0 20.7 20.5 20.4 20.1 20.3 20.7 20.8 20.6 20.5 20.5 20.5 20.7 20.8 20.9 21.1 21.3 21.5 21.8 22.0 22.1 22.1 22.4 22.9 23.6 24.1 24.3 24.1 23.8 23.5 23.5 23.4 23.2 23.1 23.4 23.5 23.6 23.8 24.0 24.1 24.1 24.2 24.2 24.1 24.0 24.0 24.6 25.2 25.6 25.9 26.3 26.5 26.5 26.7 26.8 27.0 27.3 27.3 27.3 27.6 27.8 27.6 27.3 27.2 27.4 27.5 27.6 27.6 27.9 28.4
16.9 17.4 18.0 18.5 19.0 19.4 19.7 20.1 20.4 20.6 20.8 21.1 21.3 21.2 20.9 20.7 20.5 20.4 20.5 20.5 20.5 20.6 20.6 20.5 20.4 20.4 20.5 20.7 20.6 20.5 20.5 20.9 21.1 21.4 21.7 22.0 22.2 22.4 22.6 23.0 23.6 23.9 23.9 24.0 24.0 23.7 23.4 23.3 23.4 23.5 23.7 23.8 23.8 23.9 24.0 24.1 24.2 24.3 24.3 24.4 24.5 24.7 25.3 25.7 25.9 26.2 26.5 26.6 26.8 27.0 27.3 27.5 27.6 27.6 27.6 27.8 28.0 27.9 27.7 27.7 27.8 28.0 28.0 27.9 28.1
17.1 17.5 18.0 18.6 19.2 19.7 20.0 20.3 20.6 20.8 21.0 21.3 21.4 21.3 21.0 20.9 20.7 20.5 20.5 20.7 20.8 20.7 20.6 20.5 20.4 20.3 20.5 20.8 20.7 20.4 20.2 20.4 20.8 21.4 22.0 22.4 22.6 22.6 22.4 22.5 23.0 23.5 23.7 24.0 24.0 23.7 23.5 23.6 23.6 23.6 23.7 23.8 23.8 23.9 23.9 23.9 24.1 24.3 24.4 24.5 24.7 24.8 25.2 25.5 25.8 26.0 26.2 26.5 26.8 27.1 27.3 27.6 27.9 27.9 27.8 27.9 28.0 28.0 28.0 28.0 28.0 28.3 28.5 28.5 28.5
17.1 17.5 17.9 18.5 19.1 19.8 20.1 20.3 20.6 20.8 21.1 21.3 21.4 21.3 21.2 20.9 20.6 20.5 20.5 20.7 20.9 20.8 20.7 20.7 20.5 20.3 20.5 20.8 20.6 20.1 20.0 20.4 21.1 22.0 22.6 23.0 23.0 22.9 22.7 22.6 22.8 23.2 23.5 24.0 24.0 23.9 23.8 23.8 23.7 23.7 23.7 23.8 23.8 24.0 24.0 23.9 24.1 24.4 24.5 24.6 24.7 25.0 25.2 25.5 25.7 25.9 26.1 26.4 26.8 27.2 27.4 27.6 28.0 28.2 28.2 28.4 28.5 28.4 28.3 28.4 28.5 28.9 29.4 29.5 29.3
17.2 17.5 17.9 18.5 19.1 19.7 20.1 20.6 20.8 21.0 21.1 21.3 21.4 21.4 21.2 20.8 20.5 20.5 20.5 20.6 20.7 20.6 20.6 20.8 20.7 20.4 20.6 20.9 20.8 20.3 20.2 20.9 21.7 22.5 23.0 23.2 23.2 23.2 23.3 23.4 23.4 23.4 23.5 23.8 23.9 23.7 23.6 23.6 23.6 23.6 23.7 23.8 23.9 24.0 24.0 24.1 24.3 24.5 24.7 24.8 24.9 25.1 25.4 25.7 25.8 26.0 26.1 26.4 26.8 27.2 27.5 27.7 28.0 28.3 28.5 28.5 28.7 28.9 28.9 28.8 28.8 29.2 29.9 30.2 30.2
17.5 17.9 18.3 18.9 19.5 19.9 20.3 20.6 20.9 21.2 21.4 21.6 21.6 21.5 21.0 20.6 20.5 20.5 20.5 20.5 20.6 20.5 20.5 20.8 21.0 21.1 21.6 22.0 21.7 21.1 21.0 21.4 22.0 22.5 22.9 23.3 23.7 23.9 23.9 24.0 24.0 23.8 23.5 23.5 23.4 23.2 23.1 23.3 23.5 23.5 23.6 23.8 24.0 24.0 24.1 24.3 24.5 24.6 24.8 24.9 25.0 25.3 25.6 25.8 26.0 26.3 26.4 26.6 26.9 27.2 27.5 27.8 28.1 28.4 28.7 28.8 28.8 29.0 29.1 29.1 29.0 29.1 29.8 30.3 30.3
17.6 18.1 18.7 19.3 19.9 20.4 20.6 20.8 21.0 21.1 21.3 21.5 21.7 21.3 20.7 20.4 20.5 20.4 20.3 20.4 20.5 20.4 20.3 20.4 20.5 21.0 21.8 22.3 22.0 21.5 21.4 21.6 21.9 22.4 22.9 23.4 23.7 23.8 23.7 23.7 23.8 23.6 23.3 23.1 23.2 23.1 23.0 23.0 23.3 23.6 23.7 23.8 24.0 24.1 24.2 24.4 24.6 24.8 24.9 24.9 25.1 25.4 25.7 25.9 26.2 26.5 26.7 26.9 27.1 27.3 27.6 27.9 28.2 28.5 28.9 29.1 29.2 29.2 29.3 29.5 29.6 29.4 29.5 30.0 30.2
17.6 18.1 18.8 19.4 20.0 20.6 20.9 21.1 21.2 21.4 21.5 21.8 21.4 20.8 20.4 20.2 20.2 20.2 20.2 20.4 20.3 20.2 20.1 20.1 20.2 20.7 21.4 21.7 21.6 21.4 21.3 21.5 21.6 21.8 22.0 22.4 22.7 22.8 22.9 23.1 23.3 23.3 23.1 23.0 23.1 23.1 23.1 23.1 23.3 23.5 23.7 23.8 24.0 24.2 24.4 24.5 24.7 24.9 25.0 25.1 25.2 25.4 25.8 26.1 26.5 26.7 27.0 27.1 27.3 27.5 27.7 28.0 28.2 28.6 29.0 29.3 29.4 29.5 29.6 29.9 30.2 30.1 29.9 30.1 30.4
18.1 18.5 19.1 19.6 20.1 20.6 21.0 21.3 21.5 21.7 21.6 21.3 20.9 20.4 20.1 20.1 20.1 20.3 20.5 20.4 20.1 20.0 20.1 20.0 20.1 20.8 21.3 21.5 21.5 21.4 21.2 21.3 21.5 21.4 21.4 21.5 21.8 22.1 22.5 22.9 23.1 23.1 23.1 23.2 23.3 23.3 23.2 23.2 23.4 23.5 23.6 23.8 24.1 24.3 24.5 24.7 24.9 25.0 25.1 25.3 25.4 25.6 26.1 26.6 26.8 27.0 27.3 27.4 27.6 27.8 28.0 28.2 28.4 28.7 29.1 29.4 29.6 29.8 30.0 30.1 30.4 30.5 30.4 30.4 30.6
18.4 18.9 19.5 20.1 20.5 20.8 21.1 21.4 21.5 21.3 21.1 20.9 20.6 20.4 20.2 20.3 20.5 20.5 20.5 20.2 19.9 20.0 20.1 20.0 20.2 20.8 21.2 21.3 21.5 21.6 21.5 21.5 21.5 21.4 21.4 21.6 21.9 22.0 22.4 22.9 23.2 23.3 23.3 23.4 23.5 23.4 23.3 23.2 23.3 23.4 23.5 23.8 24.2 24.4 24.6 24.9 25.1 25.1 25.2 25.5 25.7 26.0 26.4 26.8 27.1 27.3 27.5 27.7 28.0 28.1 28.3 28.5 28.8 28.9 29.2 29.5 29.7 29.8 30.0 30.3 30.5 30.5 30.5 30.5 30.6
18.6 18.9 19.6 20.4 20.9 21.1 21.3 21.2 21.1 21.1 21.0 20.6 20.3 20.1 20.1 20.3 20.5 20.5 20.2 20.0 19.9 20.0 20.0 20.0 20.2 20.8 21.1 21.2 21.5 21.7 21.7 21.8 21.8 21.6 21.7 22.0 22.2 22.3 22.6 22.9 23.1 23.3 23.5 23.5 23.5 23.5 23.4 23.2 23.2 23.3 23.6 24.0 24.3 24.5 24.8 25.1 25.3 25.4 25.5 25.7 26.0 26.4 26.6 26.9 27.2 27.5 27.7 27.9 28.3 28.5 28.6 28.9 29.1 29.2 29.5 29.8 30.0 30.1 30.2 30.4 30.6 30.8 30.8 30.6 30.6
18.7 18.9 19.6 20.4 20.8 21.0 21.2 21.1 21.0 21.0 20.6 20.1 20.0 20.0 20.1 20.3 20.4 20.3 20.0 19.8 19.9 20.0 20.0 20.0 20.3 20.7 21.0 21.3 21.5 21.7 21.8 22.0 22.0 21.9 22.0 22.3 22.4 22.5 22.6 22.8 23.0 23.2 23.4 23.5 23.5 23.5 23.4 23.2 23.2 23.4 23.8 24.2 24.5 24.7 25.0 25.3 25.4 25.6 25.8 26.0 26.3 26.6 26.9 27.0 27.3 27.6 27.9 28.1 28.3 28.6 28.9 29.1 29.4 29.5 29.7 30.0 30.3 30.5 30.6 30.7 30.8 31.0 31.1 31.0 30.9
18.7 18.8 19.3 20.2 21.0 21.2 21.3 21.1 20.8 20.6 20.3 20.1 20.2 20.3 20.4 20.4 20.3 20.0 19.7 19.6 19.9 20.1 20.1 20.1 20.2 20.5 20.7 21.2 21.5 21.8 21.9 22.1 22.1 22.1 22.1 22.3 22.3 22.5 22.6 22.7 22.8 23.0 23.1 23.2 23.4 23.4 23.3 23.3 23.3 23.5 23.9 24.3 24.6 24.8 25.1 25.4 25.7 25.9 26.2 26.4 26.5 26.7 27.0 27.4 27.6 27.9 28.2 28.4 28.5 28.6 28.9 29.1 29.4 29.7 29.9 30.2 30.5 30.7 30.9 31.0 31.1 31.1 31.2 31.4 31.3
18.8 18.8 19.2 19.8 20.7 21.3 21.2 20.9 20.7 20.5 20.5 20.4 20.3 20.2 20.2 20.1 19.8 19.6 19.5 19.7 20.0 20.2 20.1 20.1 20.2 20.3 20.4 20.8 21.3 21.7 21.9 22.0 22.0 22.0 22.0 22.2 22.3 22.5 22.5 22.6 22.7 22.9 23.0 23.0 23.2 23.2 23.2 23.3 23.5 23.7 24.0 24.4 24.7 24.9 25.1 25.5 25.9 26.3 26.5 26.7 26.8 27.0 27.3 27.7 28.0 28.3 28.6 28.7 28.7 28.8 28.9 29.1 29.5 29.8 30.1 30.3 30.6 30.9 31.0 31.3 31.4 31.3 31.4 31.5 31.6
19.0 19.1 19.2 19.8 20.5 21.0 20.8 20.6 20.5 20.5 20.5 20.4 20.1 20.0 19.9 19.7 19.5 19.5 19.8 20.0 20.0 20.0 20.0 20.0 20.2 20.2 20.3 20.6 21.1 21.5 21.8 21.9 21.8 21.8 22.0 22.1 22.4 22.5 22.5 22.6 22.6 22.7 22.8 23.0 23.0 23.0 23.1 23.4 23.7 24.0 24.2 24.4 24.6 24.9 25.3 25.7 26.1 26.4 26.7 26.9 27.1 27.4 27.6 28.0 28.2 28.5 28.8 28.9 29.0 29.0 29.1 29.2 29.5 30.0 30.3 30.5 30.6 30.9 31.1 31.3 31.5 31.7 31.7 31.8 31.8
19.0 19.3 19.4 19.8 20.6 20.8 20.7 20.6 20.6 20.5 20.3 20.1 19.9 19.8 19.8 19.7 19.6 19.7 19.9 19.9 19.9 19.9 19.9 20.0 20.2 20.2 20.3 20.6 21.1 21.5 21.7 21.8 21.8 21.8 22.0 22.2 22.5 22.6 22.6 22.5 22.6 22.6 22.7 22.8 22.9 22.9 23.1 23.5 23.9 24.1 24.3 24.5 24.6 24.9 25.4 25.9 26.2 26.5 26.7 27.0 27.4 27.6 27.9 28.2 28.4 28.6 28.9 29.1 29.2 29.3 29.4 29.5 29.6 30.0 30.4 30.6 30.7 30.8 31.0 31.3 31.5 31.6 31.8 31.9 32.0
18.9 19.4 19.6 20.0 20.6 20.8 20.8 20.7 20.6 20.3 20.0 20.0 19.9 19.8 19.8 19.7 19.7 19.8 19.8 19.9 19.9 19.9 20.0 20.1 20.3 20.3 20.4 20.7 21.2 21.6 21.9 21.8 21.8 21.9 22.1 22.3 22.5 22.7 22.6 22.5 22.5 22.6 22.6 22.5 22.6 22.9 23.2 23.6 24.0 24.2 24.3 24.5 24.8 25.1 25.5 26.0 26.3 26.5 26.8 27.2 27.5 27.8 28.1 28.4 28.6 28.8 29.1 29.2 29.3 29.4 29.5 29.6 29.8 30.1 30.5 30.8 30.9 30.9 31.0 31.2 31.5 31.6 31.6 31.9 32.1
18.5 19.0 19.5 20.0 20.5 20.7 20.6 20.5 20.3 20.0 20.0 20.1 20.0 19.9 19.8 19.8 19.8 19.8 19.9 19.9 19.9 20.0 20.1 20.3 20.4 20.5 20.6 20.9 21.4 21.8 22.0 22.0 21.9 22.0 22.1 22.4 22.5 22.6 22.5 22.5 22.5 22.6 22.5 22.4 22.5 22.9 23.4 23.7 24.0 24.2 24.3 24.5 25.0 25.4 25.7 26.1 26.4 26.6 26.9 27.2 27.6 27.9 28.2 28.5 28.7 29.0 29.2 29.3 29.4 29.5 29.6 29.8 29.9 30.2 30.5 30.8 31.0 31.0 31.0 31.2 31.4 31.6 31.7 31.8 32.0
18.4 18.8 19.2 19.8 20.3 20.5 20.5 20.5 20.4 20.2 20.2 20.2 20.0 19.9 19.9 19.8 19.6 19.7 19.9 19.9 20.0 20.2 20.4 20.6 20.6 20.5 20.7 21.1 21.6 21.9 22.0 22.0 22.0 22.0 22.2 22.5 22.6 22.6 22.5 22.4 22.5 22.5 22.5 22.4 22.5 23.0 23.5 23.8 24.0 24.2 24.4 24.8 25.2 25.6 26.0 26.2 26.5 26.7 27.0 27.4 27.6 27.9 28.2 28.5 28.7 29.0 29.3 29.4 29.4 29.5 29.7 29.9 30.0 30.2 30.5 30.8 31.0 31.0 31.1 31.2 31.4 31.7 32.0 32.0 32.0
18.3 18.7 19.2 19.7 20.2 20.4 20.4 20.4 20.3 20.1 20.0 20.0 19.9 19.8 19.7 19.7 19.7 19.8 20.0 20.0 20.2 20.5 20.6 20.7 20.6 20.6 20.9 21.4 21.8 22.0 22.0 22.0 22.1 22.2 22.4 22.5 22.6 22.6 22.5 22.4 22.5 22.4 22.4 22.4 22.7 23.1 23.5 23.8 24.0 24.2 24.5 25.0 25.5 25.8 26.1 26.4 26.7 26.9 27.1 27.4 27.7 27.9 28.2 28.4 28.6 28.9 29.2 29.3 29.4 29.5 29.7 29.9 30.0 30.2 30.4 30.8 31.0 31.0 31.1 31.2 31.5 31.8 32.1 32.2 32.1